Regional Weather Roundup
Issued by NWS Kansas City/Pleasant Hill, MO

Home | Current Version | Previous Version | Text Only | Print | Product List | Glossary On
Versions: 1 2 3 4 5 6 7 8 9 10 11 12 13 14 15 16 17 18 19 20 21 22 23 24 25 26 27 28 29 30 31 32 33 34 35 36 37 38 39 40 41 42 43 44 45 46 47 48 49 50
000
ASUS43 KEAX 062310
RWREAX

WEATHER ROUNDUP FOR EASTERN KANSAS AND NORTHWEST MISSOURI
NATIONAL WEATHER SERVICE KANSAS CITY/PLEASANT HILL MO
600 PM CDT MON JUL 06 2015

KSZ040-057-103>105-MOZ028-029-037-043-070000-
...KANSAS CITY METROPOLITAN AREA...

CITY           SKY/WX    TMP DP  RH WIND       PRES   REMARKS
K.C. INTL      TSTM      72  71  97 SW8       29.90R FOG
K.C. DOWNTOWN  TSTM      72  71  97 NE18      29.85F FOG
LEES SUMMIT    TSTM      76  69  79 NW16      29.89R
OLATHE - IXD   CLOUDY    72  71  97 SW12      29.88R THUNDER FOG
OLATHE - OJC   TSTM      70  69  97 SW8G20    29.87R FOG
LAWRENCE       TSTM      72  70  93 N13G21    29.87R FOG

$$

MOZ001>008-011>017-020>025-030>033-038>040-044>046-053-054-070000-
...NORTHERN AND CENTRAL MISSOURI...

CITY           SKY/WX    TMP DP  RH WIND       PRES   REMARKS
ST. JOSEPH     LGT RAIN  73  71  93 MISG      29.87R
MOSBY          TSTM      72  70  94 CALM      29.88F
WARRENSBURG    CLOUDY    82  73  74 S6        29.87R
WHITEMAN AFB   CLOUDY    82  75  78 S8        29.87R
CLINTON        PTSUNNY   84  77  79 S6        29.89R HX  94
SEDALIA        CLOUDY    84  74  71 S10       29.89R HX  91
WARSAW         NOT AVBL
CHILLICOTHE      N/A     74  72  93 S9G22     29.87S
KIRKSVILLE     LGT RAIN  77  74  90 S3        29.86R FOG

$$

MOZ041-047>049-056>058-063>065-088>090-097-070000-
...EASTERN AND SOUTHERN MISSOURI...

CITY           SKY/WX    TMP DP  RH WIND       PRES   REMARKS
ST. LOUIS INTL PTSUNNY   84  70  62 S9        29.89F
SPIRIT OF STL  MOSUNNY   84  74  71 S7        29.88F HX  91
COLUMBIA       PTSUNNY   84  74  71 S9        29.89R HX  91
JEFFERSON CITY MOSUNNY   86  73  65 S6        29.87R HX  93
ROLLA          SUNNY     84  73  69 SW12      29.92R HX  90
OSAGE BEACH    MOSUNNY   84  72  65 S8        29.91R
SPRINGFIELD    PTSUNNY   83  72  69 S14       29.93R
BRANSON        PTSUNNY   81  73  78 SW5       29.96S
JOPLIN         MOSUNNY   84  74  71 S14G21    29.90R HX  91
WEST PLAINS    PTSUNNY   82  71  69 S9G20     29.97F

$$

IAZ060-094-KSZ022-034>040-054-083-096-NEZ052-066-093-070000-
...KANSAS...SOUTHEAST NEBRASKA AND IOWA...

CITY           SKY/WX    TMP DP  RH WIND       PRES   REMARKS
TOPEKA         RAIN      72  70  93 NE7       29.89R FOG
MANHATTAN      LGT RAIN  74  72  93 N10       29.86F
EMPORIA        LGT RAIN  70  69  97 SW3       29.88F
CHANUTE        CLOUDY    84  74  71 S9        29.87R HX  91
WICHITA        TSTM      75  72  90 N5        29.85F FOG
OMAHA          CLOUDY    74  66  76 N16G28    29.93R HAZE
LINCOLN        CLOUDY    73  66  78 N21       29.96R
FALLS CITY     LGT RAIN  73  71  93 N5        29.89R
LAMONI         HVY RAIN  74  72  93 W5        29.89R FOG
DES MOINES     CLOUDY    73  68  84 N14       29.88R

$$



USA.gov is the U.S. government's official web portal to all federal, state and local government web resources and services.